When you browse on this site, cookies collect data to enhance your experience and personalize the content and advertising you see.
Visit our Privacy Policy to learn more. By continuing to use the site, you agree to this use of cookies and data.
  • En España
  • Lista de países
  • Para 7 días
  • Temperatura del agua
  • Mapa Satelital
  • El tiempo en el mapa
  • Informadores
  • user-avatar
    Iniciar sesión

    Tiempo cada hora Maksaky

    Hoy, 19 Mayo, Domingo

    Tiempo Temperatura Precipitaciones Viento Presión Humedad
    00:00 +13°C° 0 mm 3 mps 751 mmHg 84%
    01:00 +12°C° 0 mm 3 mps 751 mmHg 83%
    02:00 +11°C° 0 mm 3 mps 751 mmHg 81%
    03:00 +11°C° 0 mm 3 mps 751 mmHg 81%
    04:00 +11°C° 0 mm 3 mps 751 mmHg 80%
    05:00 +11°C° 0 mm 3 mps 751 mmHg 80%
    06:00 +13°C° 0 mm 3 mps 751 mmHg 75%
    07:00 +15°C° 0 mm 4 mps 751 mmHg 70%
    08:00 +18°C° 0 mm 4 mps 751 mmHg 65%
    09:00 +20°C° 0 mm 4 mps 751 mmHg 61%
    10:00 +21°C° 0 mm 4 mps 752 mmHg 56%
    11:00 +23°C° 0 mm 4 mps 752 mmHg 52%
    12:00 +23°C° 0 mm 5 mps 752 mmHg 52%
    13:00 +23°C° 0 mm 5 mps 752 mmHg 52%
    14:00 +25°C° 0 mm 5 mps 752 mmHg 52%
    15:00 +25°C° 0 mm 5 mps 752 mmHg 56%
    16:00 +23°C° 0 mm 4 mps 752 mmHg 60%
    17:00 +23°C° 0 mm 4 mps 752 mmHg 64%
    18:00 +21°C° 0 mm 4 mps 752 mmHg 70%
    19:00 +20°C° 0 mm 4 mps 752 mmHg 76%
    20:00 +18°C° 0 mm 3 mps 752 mmHg 82%
    21:00 +17°C° 0 mm 4 mps 752 mmHg 81%
    22:00 +17°C° 0 mm 4 mps 752 mmHg 80%
    23:00 +15°C° 0 mm 4 mps 753 mmHg 79%

    Mañana, 20 Mayo, Lunes

    Tiempo Temperatura Precipitaciones Viento Presión Humedad
    00:00 +14°C° 0 mm 4 mps 753 mmHg 79%
    01:00 +14°C° 0 mm 4 mps 753 mmHg 79%
    02:00 +13°C° 0 mm 4 mps 753 mmHg 78%
    03:00 +13°C° 0 mm 4 mps 754 mmHg 79%
    04:00 +13°C° 0 mm 5 mps 754 mmHg 80%
    05:00 +13°C° 0 mm 5 mps 754 mmHg 81%
    06:00 +15°C° 0 mm 5 mps 754 mmHg 76%
    07:00 +16°C° 0 mm 6 mps 754 mmHg 71%
    08:00 +19°C° 0 mm 6 mps 754 mmHg 66%
    09:00 +20°C° 0 mm 6 mps 754 mmHg 63%
    10:00 +21°C° 0 mm 6 mps 754 mmHg 59%
    11:00 +23°C° 0 mm 6 mps 754 mmHg 56%
    12:00 +23°C° 0 mm 6 mps 754 mmHg 55%
    13:00 +23°C° 0 mm 6 mps 754 mmHg 54%
    14:00 +24°C° 0 mm 6 mps 754 mmHg 54%
    15:00 +23°C° 0 mm 6 mps 754 mmHg 57%
    16:00 +23°C° 0 mm 6 mps 753 mmHg 60%
    17:00 +22°C° 0 mm 5 mps 753 mmHg 63%
    18:00 +21°C° 0 mm 5 mps 753 mmHg 66%
    19:00 +19°C° 0 mm 5 mps 753 mmHg 69%
    20:00 +17°C° 0 mm 5 mps 753 mmHg 72%
    21:00 +17°C° 0 mm 5 mps 753 mmHg 70%
    22:00 +16°C° 0 mm 6 mps 753 mmHg 68%
    23:00 +16°C° 0 mm 6 mps 753 mmHg 66%

    Pasado mañana, 21 Mayo, Martes

    Tiempo Temperatura Precipitaciones Viento Presión Humedad
    00:00 +16°C° 0 mm 6 mps 753 mmHg 65%
    01:00 +16°C° 0 mm 6 mps 753 mmHg 63%
    02:00 +16°C° 0 mm 7 mps 753 mmHg 61%
    03:00 +16°C° 0 mm 6 mps 753 mmHg 62%
    04:00 +16°C° 0 mm 6 mps 753 mmHg 62%
    05:00 +16°C° 0 mm 6 mps 753 mmHg 63%
    06:00 +16°C° 0 mm 6 mps 753 mmHg 65%
    07:00 +16°C° 0 mm 6 mps 753 mmHg 68%
    08:00 +16°C° 0 mm 6 mps 753 mmHg 70%
    09:00 +19°C° 0 mm 6 mps 753 mmHg 67%
    10:00 +21°C° 0 mm 7 mps 753 mmHg 65%
    11:00 +22°C° 0 mm 7 mps 753 mmHg 62%
    12:00 +23°C° 0 mm 7 mps 752 mmHg 60%
    13:00 +24°C° 0 mm 8 mps 752 mmHg 59%
    14:00 +24°C° 0 mm 8 mps 752 mmHg 58%
    15:00 +24°C° 0 mm 7 mps 751 mmHg 60%
    16:00 +23°C° 0 mm 6 mps 751 mmHg 63%
    17:00 +23°C° 0 mm 6 mps 750 mmHg 66%
    18:00 +22°C° 0.2 mm 5 mps 750 mmHg 70%
    19:00 +20°C° 0.2 mm 5 mps 750 mmHg 74%
    20:00 +19°C° 0.2 mm 4 mps 750 mmHg 79%
    21:00 +17°C° 1.5 mm 5 mps 750 mmHg 82%
    22:00 +17°C° 1.5 mm 5 mps 750 mmHg 84%
    23:00 +16°C° 1.5 mm 5 mps 750 mmHg 87%

    22 Mayo, Miércoles

    Tiempo Temperatura Precipitaciones Viento Presión Humedad
    00:00 +16°C° 1 mm 5 mps 750 mmHg 88%
    01:00 +17°C° 1 mm 4 mps 749 mmHg 89%
    02:00 +17°C° 1 mm 4 mps 749 mmHg 90%
    03:00 +17°C° 0 mm 4 mps 749 mmHg 90%
    04:00 +15°C° 0 mm 4 mps 749 mmHg 90%
    05:00 +15°C° 0 mm 4 mps 749 mmHg 91%
    06:00 +17°C° 0 mm 4 mps 749 mmHg 88%
    07:00 +19°C° 0 mm 4 mps 749 mmHg 85%
    08:00 +20°C° 0 mm 4 mps 749 mmHg 82%
    09:00 +20°C° 0.5 mm 4 mps 748 mmHg 80%
    10:00 +21°C° 0.5 mm 4 mps 748 mmHg 78%
    11:00 +21°C° 0.5 mm 4 mps 748 mmHg 76%
    12:00 +20°C° 1.2 mm 5 mps 748 mmHg 80%
    13:00 +19°C° 1.2 mm 5 mps 748 mmHg 84%
    14:00 +17°C° 1.2 mm 5 mps 747 mmHg 88%
    15:00 +17°C° 0 mm 5 mps 747 mmHg 86%
    16:00 +19°C° 0 mm 5 mps 747 mmHg 84%
    17:00 +19°C° 0 mm 5 mps 746 mmHg 82%
    18:00 +18°C° 0.6 mm 4 mps 746 mmHg 86%
    19:00 +17°C° 0.6 mm 4 mps 746 mmHg 89%
    20:00 +16°C° 0.6 mm 3 mps 746 mmHg 93%
    21:00 +16°C° 0.2 mm 3 mps 746 mmHg 94%
    22:00 +16°C° 0.2 mm 3 mps 745 mmHg 95%
    23:00 +14°C° 0.2 mm 3 mps 745 mmHg 96%

    23 Mayo, Jueves

    Tiempo Temperatura Precipitaciones Viento Presión Humedad
    00:00 +14°C° 0 mm 3 mps 745 mmHg 97%
    01:00 +14°C° 0 mm 3 mps 745 mmHg 97%
    02:00 +15°C° 0 mm 2 mps 745 mmHg 97%
    03:00 +15°C° 0.1 mm 2 mps 744 mmHg 97%
    04:00 +14°C° 0.1 mm 2 mps 744 mmHg 97%
    05:00 +14°C° 0.1 mm 2 mps 744 mmHg 97%
    06:00 +16°C° 0 mm 2 mps 744 mmHg 93%
    07:00 +17°C° 0 mm 2 mps 743 mmHg 90%
    08:00 +18°C° 0 mm 2 mps 743 mmHg 87%
    09:00 +19°C° 0.3 mm 3 mps 743 mmHg 83%
    10:00 +20°C° 0.3 mm 3 mps 743 mmHg 79%
    11:00 +21°C° 0.3 mm 3 mps 743 mmHg 74%
    12:00 +21°C° 1.3 mm 3 mps 743 mmHg 76%
    13:00 +21°C° 1.3 mm 4 mps 743 mmHg 77%
    14:00 +21°C° 1.3 mm 4 mps 742 mmHg 79%
    15:00 +20°C° 0.8 mm 4 mps 742 mmHg 81%
    16:00 +20°C° 0.8 mm 4 mps 742 mmHg 83%
    17:00 +20°C° 0.8 mm 4 mps 742 mmHg 85%
    18:00 +19°C° 1.3 mm 4 mps 742 mmHg 87%
    19:00 +18°C° 1.3 mm 4 mps 742 mmHg 90%
    20:00 +17°C° 1.3 mm 4 mps 742 mmHg 93%
    21:00 +17°C° 0.1 mm 4 mps 742 mmHg 94%
    22:00 +15°C° 0.1 mm 4 mps 742 mmHg 95%
    23:00 +15°C° 0.1 mm 4 mps 742 mmHg 96%

    24 Mayo, Viernes

    Tiempo Temperatura Precipitaciones Viento Presión Humedad
    00:00 +15°C° 0 mm 4 mps 742 mmHg 96%
    01:00 +15°C° 0 mm 4 mps 742 mmHg 96%
    02:00 +15°C° 0 mm 4 mps 742 mmHg 96%
    03:00 +15°C° 0 mm 4 mps 742 mmHg 96%
    04:00 +15°C° 0 mm 4 mps 742 mmHg 96%
    05:00 +15°C° 0 mm 4 mps 742 mmHg 96%
    06:00 +15°C° 0.1 mm 4 mps 742 mmHg 95%
    07:00 +17°C° 0.1 mm 4 mps 742 mmHg 94%
    08:00 +17°C° 0.1 mm 4 mps 742 mmHg 93%
    09:00 +17°C° 0.1 mm 4 mps 743 mmHg 92%
    10:00 +17°C° 0.1 mm 4 mps 743 mmHg 91%
    11:00 +17°C° 0.1 mm 5 mps 743 mmHg 91%
    12:00 +17°C° 0.1 mm 5 mps 743 mmHg 89%
    13:00 +17°C° 0.1 mm 5 mps 743 mmHg 88%
    14:00 +17°C° 0.1 mm 6 mps 743 mmHg 87%
    15:00 +17°C° 0 mm 6 mps 743 mmHg 86%
    16:00 +17°C° 0 mm 5 mps 743 mmHg 85%
    17:00 +17°C° 0 mm 5 mps 743 mmHg 83%
    18:00 +16°C° 0.1 mm 5 mps 744 mmHg 85%
    19:00 +15°C° 0.1 mm 4 mps 744 mmHg 87%
    20:00 +14°C° 0.1 mm 3 mps 744 mmHg 88%
    21:00 +14°C° 0.5 mm 3 mps 744 mmHg 90%
    22:00 +13°C° 0.5 mm 3 mps 744 mmHg 93%
    23:00 +13°C° 0.5 mm 3 mps 744 mmHg 95%
    Mostrar más